map of TYS home
Great Circle Mapper logo
TYS - Airport
Location
City:  Knoxville, Tennessee, United States
Name:Mc Ghee Tyson Airport
ICAO / IATA:KTYS / TYS
FAA:TYS

Details
Type:Airport (Part 139 Class I)
Use:Public/Civil, International (customs landing rights)
Latitude:3548'39"N (35.810972)
Longitude:8359'38"W (-83.994027)
Datum:WGS 1984
Elevation:981 ft (299 m)
Runways:2
Longest:9005 × 150 ft (2745 × 45.5 m), paved

Time
Time Zone:UTC-5 (DST-4)
Local Time:

Weather
METAR:KTYS 311853Z 00000KT 10SM OVC041 11/06 A2990 RMK AO2 SLP124 T01060056
TAF:KTYS 311720Z 3118/0118 29007KT P6SM VCSH OVC050
FM312100 28010KT 6SM -RA BR OVC025
FM010000 30015G25KT 5SM -SNRA BR OVC015
FM010900 31016KT 2SM -SN BR OVC015
FM011500 33015KT 4SM -SN BR OVC025

Related Locations
Nearby:
Farthest:MGV: 11353 mi / 18271 km
Margaret River, WA, AU

Find:

   beyond  
but within

Other Information
Maps:
Delays:
NOTAMs:
Links:
Sources:

  
flag of United States
flag of Tennessee
  

Airport Diagram

Airport diagram for TYS

Airport diagram PDF

Sectional Chart

Flight Planning
at skyvector.com

Satellite Image

Google Maps Satellite View

 

Copyright © 2004-2014 Karl L. Swartz. All rights reserved.
The Great Circle Mapper name and logo are trademarks of the Great Circle Mapper.
All other trademarks mentioned herein belong to their respective owners.
Please see credits for attibutions and further copyright information.

  Follow gcmap on Facebook Follow gcmap on Twitter

hCard Microformat

Geo Microformat